DW5256 Weather Reports


time (UTC)temp
F
wind
direction
speed
knots
gust
knots
rain 1hr
in
rain 24hr
in
rain mn
in
humidity
%
barometer
mb
20260831012022 78 259 0.9 6.1 0.00 0.00 0.00 71 1009.6
20260831010525 80 269 0.0 5.2 0.00 0.00 0.00 69 1009.6
20260831005031 80 265 0.9 2.6 0.00 0.00 0.00 69 1009.5
20260831003532 81 257 2.6 7.8 0.00 0.00 0.00 67 1009.7
20260831002026 81 257 0.0 6.1 0.00 0.00 0.00 67 1009.6
20260831000529 82 230 0.9 7.0 0.00 0.00 0.00 67 1009.5
20260830235044 82 214 0.0 6.1 0.00 0.00 0.00 66 1009.6
20260830233527 82 215 0.9 8.7 0.00 0.00 0.00 65 1009.7
20260830232021 83 254 0.9 8.7 0.00 0.00 0.00 62 1009.7
20260830230527 83 195 1.7 9.6 0.00 0.00 0.00 58 1009.8
20260830225015 83 235 0.9 7.0 0.00 0.00 0.00 55 1009.7
20260830223521 84 212 0.0 9.6 0.00 0.00 0.00 54 1009.8
20260830222019 83 230 0.9 8.7 0.00 0.00 0.00 53 1009.9
20260830220522 84 240 2.6 9.6 0.00 0.00 0.00 55 1010.1
20260830215024 84 262 3.5 7.8 0.00 0.00 0.00 51 1010.2
20260830213533 83 248 4.3 8.7 0.00 0.00 0.00 53 1010.3
20260830212039 83 261 3.5 9.6 0.00 0.00 0.00 52 1010.4
20260830210518 83 271 2.6 9.6 0.00 0.00 0.00 49 1010.5
20260830205016 84 232 0.9 11.3 0.00 0.00 0.00 52 1010.6
20260830203517 85 244 1.7 7.0 0.00 0.00 0.00 49 1010.7
20260830202015 85 234 1.7 8.7 0.00 0.00 0.00 50 1010.7
20260830200521 84 260 2.6 8.7 0.00 0.00 0.00 46 1010.8
20260830195021 85 254 0.0 8.7 0.00 0.00 0.00 43 1010.8
20260830193548 84 235 0.9 8.7 0.00 0.00 0.00 49 1010.9
20260830192042 84 234 0.9 11.3 0.00 0.00 0.00 54 1011.1
20260830190539 84 265 0.0 8.7 0.00 0.00 0.00 58 1010.9
20260830185034 83 243 5.2 8.7 0.00 0.00 0.00 64 1011.0
20260830183529 82 257 0.9 9.6 0.00 0.00 0.00 65 1011.0
20260830182043 82 229 0.9 7.8 0.00 0.00 0.00 64 1011.2
20260830180537 83 232 0.0 6.1 0.00 0.00 0.00 61 1011.2
20260830175021 82 254 0.0 0.0 0.00 0.00 0.00 65 1011.2
20260830173531 83 221 0.0 0.0 0.00 0.00 0.00 66 1011.1
20260830172038 82 225 0.0 0.0 0.00 0.00 0.00 66 1010.9
20260830170534 80 241 0.0 0.0 0.00 0.00 0.00 68 1010.8
20260830165023 79 241 0.0 0.0 0.00 0.00 0.00 71 1010.6
20260830163554 77 240 0.0 0.0 0.00 0.00 0.00 74 1010.6
20260830162017 75 240 0.0 0.0 0.00 0.00 0.00 78 1010.7
20260830160542 74 242 0.0 0.0 0.00 0.00 0.00 80 1010.7
20260830155031 74 232 0.0 0.0 0.00 0.00 0.00 82 1010.8
20260830153525 73 232 0.0 0.9 0.00 0.00 0.00 85 1010.9
20260830152040 71 232 0.0 0.0 0.00 0.00 0.00 86 1010.8
20260830150530 71 233 0.0 0.0 0.00 0.00 0.00 86 1010.9
20260830145018 70 233 0.0 0.0 0.00 0.00 0.00 87 1010.7
20260830143530 70 234 0.0 0.0 0.00 0.00 0.00 87 1010.6
20260830142023 70 233 0.0 0.0 0.00 0.00 0.00 87 1010.8
20260830140530 70 234 0.0 0.0 0.00 0.00 0.00 87 1010.6
20260830135020 70 233 0.0 0.0 0.00 0.00 0.00 87 1010.5
20260830133518 70 233 0.0 0.0 0.00 0.00 0.00 86 1010.3
20260830132014 70 234 0.0 0.0 0.00 0.00 0.00 87 1010.1
20260830130515 70 233 0.0 0.0 0.00 0.00 0.00 87 1010.1
20260830125052 70 234 0.0 0.0 0.00 0.00 0.00 87 1010.1
20260830123531 70 233 0.0 0.0 0.00 0.00 0.00 86 1010.0
20260830122031 70 233 0.0 0.0 0.00 0.00 0.00 86 1009.9
20260830120530 71 238 0.0 0.0 0.00 0.00 0.00 86 1010.0
20260830115027 71 239 0.0 0.0 0.00 0.00 0.00 87 1010.1
20260830113528 71 240 0.0 0.0 0.00 0.00 0.00 86 1010.0
20260830112023 71 257 0.0 0.0 0.00 0.00 0.00 86 1009.9
20260830110521 71 258 0.0 0.0 0.00 0.00 0.00 86 1009.9
20260830105020 71 258 0.0 0.0 0.00 0.00 0.00 86 1009.8
20260830103520 71 258 0.0 0.0 0.00 0.00 0.00 86 1009.9
20260830102044 71 257 0.0 0.0 0.00 0.00 0.00 86 1009.8
20260830100547 71 270 0.0 0.0 0.00 0.00 0.00 86 1009.8
20260830095023 72 273 0.0 0.0 0.00 0.00 0.00 86 1009.8
20260830093521 72 273 0.0 0.0 0.00 0.00 0.00 86 1009.8
20260830092020 72 273 0.0 0.0 0.00 0.00 0.00 86 1009.9
20260830090519 72 273 0.0 0.0 0.00 0.00 0.00 86 1009.9
20260830085016 72 274 0.0 0.0 0.00 0.00 0.00 86 1010.1
20260830083518 72 274 0.0 0.0 0.00 0.00 0.00 86 1010.0
20260830082030 72 274 0.0 0.0 0.00 0.00 0.00 86 1009.9
20260830080526 72 273 0.0 0.0 0.00 0.00 0.00 85 1009.8
20260830075021 73 274 0.0 0.0 0.00 0.00 0.00 85 1010.0
20260830073543 73 273 0.0 0.0 0.00 0.00 0.00 84 1010.1
20260830072017 73 273 0.0 0.0 0.00 0.00 0.00 84 1010.0
20260830070515 73 274 0.0 0.0 0.00 0.00 0.00 83 1010.1
20260830065024 73 273 0.0 0.0 0.00 0.00 0.00 82 1010.1
20260830063555 74 273 0.0 0.0 0.00 0.00 0.00 81 1010.1
20260830062031 74 273 0.0 0.0 0.00 0.00 0.00 80 1010.1
20260830060530 74 273 0.0 0.0 0.00 0.00 0.00 79 1010.2
20260830055033 75 274 0.0 0.0 0.00 0.00 0.00 78 1010.1
20260830053533 75 275 0.0 0.0 0.00 0.00 0.00 77 1010.0
20260830052031 76 273 0.0 0.0 0.00 0.00 0.00 75 1010.0
20260830050530 77 274 0.0 0.0 0.00 0.00 0.00 73 1010.1
20260830045026 77 275 0.0 0.0 0.00 0.00 0.00 70 1010.0
20260830043526 77 273 0.0 0.0 0.00 0.00 0.00 67 1010.0
20260830042025 78 275 0.0 0.0 0.00 0.00 0.00 66 1010.0
20260830040524 78 275 0.0 0.0 0.00 0.00 0.00 64 1010.0
20260830035022 78 275 0.0 0.0 0.00 0.00 0.00 63 1009.6
20260830033521 79 275 0.0 0.0 0.00 0.00 0.00 63 1009.5
20260830032019 79 275 0.0 0.0 0.00 0.00 0.00 62 1009.4
20260830030519 80 280 0.0 0.0 0.00 0.00 0.00 61 1009.0
20260830025020 81 271 0.0 0.0 0.00 0.00 0.00 59 1008.7
20260830023517 82 269 1.7 6.1 0.00 0.00 0.00 59 1008.8
20260830022015 83 284 0.0 0.0 0.00 0.00 0.00 58 1008.6
20260830020518 85 275 0.9 5.2 0.00 0.00 0.00 56 1008.6
20260830015017 86 277 4.3 8.7 0.00 0.00 0.00 55 1008.7
20260830013518 87 298 0.9 6.1 0.00 0.00 0.00 56 1008.7